User: anonymous   Login
Location: Beaurecueil
(43.5122°N, 5.5450°E)
Time: 14:27:27
(UTC+00:00)
Language:

ARGOS - Orbit

View from above orbital plane
View from above orbital plane
View from above satellite
View from above satellite

Ground track
Ground track

The orbit data is extracted from the following two-line orbital elements,

1 25634U 99008A   20333.85474242  .00000016  00000-0  27254-4 0  9994
2 25634  98.4429   5.1682 0010654 155.8614 204.3064 14.19383325127295
Epoch (UTC): 28 November 2020 20:30:49
Eccentricity: 0.0010654
inclination: 98.4429°
perigee height: 820 km
apogee height: 835 km
right ascension of ascending node: 5.1682°
argument of perigee: 155.8614°
revolutions per day: 14.19383325
mean anomaly at epoch: 204.3064°
orbit number at epoch: 12729

The dashed part of the orbit path shows where the satellite is in the earth's shadow,  

DLR